[[{"header":{"parameterUnit":"m.s-1","parameterCategory":1,"la1":30.2991,"la2":30.254,"lo1":-89.0895,"lo2":-89.0444,"dy":0.0017,"dx":0.0017,"nx":28,"ny":28,"refTime":"2025-06-09T21:00:00:Z","depth":0,"parameterNumber":2,"parameterNumberName":"U-component_of_WINDS"},"data":[0,0,0,0,0,0,0,0,0,0,0,0,0,0,0,0,0,0,0,0,0,0,0,0,0,0,0,0,0,0,0,0,0,0,0,0,0,0,0,0,0,0,0,0,0,0,0,0,0,0,0,0,0,0,0,0,0,0,2.3177,2.3178,0,2.3301,2.3302,2.3304,2.3296,2.3294,2.3292,2.3291,2.3418,2.3423,2.3428,0,0,0,0,0,0,0,0,0,0,0,0,0,2.2934,2.2938,2.3177,2.3179,2.318,2.3301,2.3302,2.3304,2.3296,2.3294,2.3292,2.329,2.3416,2.3422,2.3428,0,0,0,0,0,0,0,0,0,0,0,0,0,2.3047,2.294,2.3177,2.3191,2.3193,2.33,2.3302,2.3304,2.3297,2.3294,2.3291,2.3289,2.3414,2.3422,2.3429,2.353,0,0,2.3452,2.3456,0,0,0,0,0,0,0,0,2.304,2.3056,2.3187,2.319,2.3193,2.328,2.3263,2.338,2.3297,2.3258,2.3291,2.3288,2.3374,2.3385,2.3414,2.3536,2.3541,2.3453,2.3458,2.3461,2.3463,0,0,0,0,0,0,0,2.3033,2.305,2.3226,2.3189,2.3193,2.3191,2.3204,2.3285,2.333,2.3261,2.3261,2.3275,2.3375,2.3407,2.3417,2.3543,2.3453,2.3459,2.3464,2.3467,2.3753,2.3756,0,0,0,0,0,0,2.3022,2.3044,2.3222,2.323,2.3108,2.3197,2.3212,2.3255,2.3329,2.3337,2.3277,2.3274,2.3395,2.3408,2.3421,2.3543,2.3461,2.3468,2.3472,2.375,2.3753,2.3757,0,0,0,0,0,0,2.3016,2.3038,2.3217,2.3137,2.3159,2.3205,2.3253,2.3259,2.329,2.3341,2.3349,2.3301,2.3394,2.3411,2.3503,2.3547,2.3471,2.3478,2.3746,2.3751,2.3755,2.3787,0,0,0,0,0,0,2.301,2.3036,2.3075,2.3138,2.3164,2.3296,2.3256,2.3263,2.3303,2.3301,2.3366,2.3374,2.3393,2.3491,2.351,2.3556,2.3484,2.3742,2.3748,2.3754,2.3782,2.3792,2.3801,0,0,0,0,0,2.3001,2.3079,2.3077,2.3098,2.3213,2.3299,2.3314,2.3333,2.3307,2.3346,2.3379,2.3372,2.354,2.3501,2.3522,2.3571,2.374,2.3747,2.3753,2.3778,2.379,2.3801,0,0,0,0,0,0,2.302,2.3088,2.3086,2.3187,2.3237,2.3297,2.3347,2.3346,2.3405,2.34,2.3422,2.3437,2.3529,2.356,2.3515,2.3672,2.3636,2.3648,2.3648,2.366,2.3669,2.3659,2.349,0,0,0,0,0,2.3036,2.31,2.3156,2.324,2.3265,2.3302,2.334,2.3351,2.3404,2.3425,2.3465,2.3516,2.3581,2.3622,2.3685,2.3788,2.3801,2.3832,2.3841,2.3848,2.3857,2.3912,2.3926,2.3779,2.3779,2.3779,0,0,2.307,2.3115,2.3154,2.3245,2.3285,2.335,2.332,2.339,2.3439,2.3436,2.3524,2.3555,2.3615,2.3712,2.3757,2.374,2.3901,2.3857,2.3863,2.3868,2.3921,2.3935,2.3947,2.3784,2.3783,2.3782,0,0,2.3164,2.3205,2.3279,2.332,2.3381,2.3405,2.3423,2.3484,2.3504,2.3593,2.3592,2.365,2.3761,2.3802,2.3838,2.3948,2.3943,2.3968,2.4015,2.4069,2.408,2.4091,2.4128,2.4141,2.3977,2.3977,2.3977,0,2.3198,2.3296,2.3317,2.3387,2.3427,2.3428,2.3501,2.354,2.3619,2.3646,2.3627,2.3765,2.3805,2.3911,2.3938,2.3968,2.3988,2.396,2.4077,2.4088,2.4098,2.4133,2.4148,2.398,2.3979,2.3979,2.3979,0,2.3334,2.3402,2.3454,2.3529,2.3575,2.3647,2.3678,2.3722,2.3729,2.3755,2.3845,2.3894,2.3965,2.3992,2.4,2.4099,2.4086,2.4072,2.4036,2.4114,2.4147,2.4162,2.3983,2.3982,2.3982,2.3981,0,0,2.3442,2.3528,2.3546,2.3579,2.3647,2.37,2.3773,2.3842,2.3878,2.3933,2.3993,2.4086,2.4073,2.4114,2.4127,2.4174,2.4256,2.4154,2.4155,2.4169,2.4366,2.4374,2.439,2.4254,2.4257,2.4259,2.436,0,2.3541,2.3668,2.3689,2.38,2.3862,2.3864,2.3927,2.3975,2.4002,2.4058,2.4088,2.4153,2.4132,2.4156,2.4203,2.4236,2.4295,2.4229,2.4309,2.4311,2.4291,2.4408,2.4417,2.451,2.4374,2.4376,2.4378,0,2.3673,2.373,2.3847,2.3906,2.3933,2.3989,2.4053,2.4108,2.4163,2.4179,2.4224,2.4231,2.4306,2.4268,2.437,2.4325,2.4359,2.438,2.4384,2.4391,2.4347,2.4415,2.4541,2.4554,2.4399,2.4397,2.4396,0,2.3737,2.3844,2.3927,2.3956,2.4027,2.4066,2.4097,2.415,2.419,2.4247,2.4272,2.4338,2.4373,2.4423,2.4448,2.4419,2.4548,2.4513,2.4562,2.4561,2.4587,2.4584,2.4717,2.4613,2.4613,2.4613,2.4612,0,2.3844,2.3915,2.3956,2.4008,2.4087,2.4111,2.4189,2.4219,2.4266,2.4323,2.433,2.4383,2.4413,2.4471,2.4491,2.4571,2.4588,2.4602,2.4606,2.46,2.4598,2.4621,2.4614,2.4616,2.4616,2.4615,2.4614,0,2.3927,2.3958,2.4049,2.4109,2.4126,2.4181,2.4233,2.4282,2.4309,2.4381,2.4399,2.4441,2.4509,2.4539,2.4624,2.4637,2.4728,2.4729,2.4709,2.471,2.4756,2.475,2.4907,2.4927,2.4812,2.4813,2.4814,0,2.3992,2.4046,2.4112,2.415,2.4183,2.4245,2.4286,2.4311,2.4354,2.442,2.4461,2.453,2.4585,2.4694,2.4732,2.4796,2.4797,2.4847,2.4807,2.4798,2.4795,2.479,2.4795,2.4854,2.4855,2.4856,2.4857,0,2.4103,2.4115,2.4174,2.4238,2.4286,2.4338,2.4388,2.4419,2.4453,2.45,2.457,2.4613,2.4699,2.4766,2.4833,2.4865,2.4866,2.487,2.4884,2.4877,2.4862,2.4868,2.4727,2.4865,2.4864,2.4864,2.4863,2.4863,2.4177,2.4225,2.4278,2.4343,2.4384,2.4431,2.448,2.4513,2.4571,2.4642,2.4655,2.4728,2.4782,2.4871,2.4906,2.4964,2.4952,2.4973,2.4978,2.4982,2.4984,2.4855,2.4977,2.4977,2.4976,2.4976,2.4976,0,2.4286,2.432,2.438,2.445,2.4501,2.4498,2.4554,2.4597,2.4661,2.4711,2.4765,2.4845,2.491,2.4954,2.502,2.5058,2.506,2.5074,2.507,2.5077,2.4992,2.4972,2.5071,2.5071,2.5071,2.5071,2.5071,2.5071,2.4348,2.4429,2.4448,2.4548,2.4583,2.4655,2.4686,2.473,2.4769,2.4857,2.4911,2.4939,2.4986,2.5056,2.5116,2.5127,2.515,2.5164,2.5174,2.5093,2.5083,2.5074,2.5055,2.5169,2.517,2.5254,2.5255,2.5255]},{"header":{"parameterUnit":"m.s-1","parameterCategory":1,"la1":30.2991,"la2":30.254,"lo1":-89.0895,"lo2":-89.0444,"dy":0.0017,"dx":0.0017,"nx":28,"ny":28,"refTime":"2025-06-09T21:00:00:Z","depth":0,"parameterNumber":3,"parameterNumberName":"V-component_of_WINDS"},"data":[0,0,0,0,0,0,0,0,0,0,0,0,0,0,0,0,0,0,0,0,0,0,0,0,0,0,0,0,0,0,0,0,0,0,0,0,0,0,0,0,0,0,0,0,0,0,0,0,0,0,0,0,0,0,0,0,0,0,4.2823,4.2825,0,4.296,4.2962,4.2964,4.2927,4.2924,4.2922,4.2919,4.3054,4.306,4.3066,0,0,0,0,0,0,0,0,0,0,0,0,0,4.2521,4.2527,4.2823,4.2825,4.2827,4.296,4.2962,4.2964,4.2927,4.2924,4.2921,4.2918,4.3052,4.3059,4.3067,0,0,0,0,0,0,0,0,0,0,0,0,0,4.2655,4.2529,4.2823,4.2825,4.2826,4.296,4.2962,4.2964,4.2928,4.2924,4.292,4.2916,4.305,4.3059,4.3068,4.3206,0,0,4.3096,4.31,0,0,0,0,0,0,0,0,4.2647,4.2666,4.2823,4.2825,4.2827,4.2923,4.2905,4.3045,4.2929,4.2889,4.2919,4.2914,4.3013,4.3025,4.306,4.3213,4.3218,4.3097,4.3102,4.3106,4.3109,0,0,0,0,0,0,0,4.2638,4.266,4.2877,4.2825,4.2827,4.2816,4.283,4.2932,4.2972,4.2892,4.289,4.2907,4.3013,4.3051,4.3063,4.322,4.3096,4.3104,4.311,4.3114,4.349,4.3494,0,0,0,0,0,0,4.2628,4.2652,4.2873,4.2881,4.2725,4.2825,4.2841,4.2896,4.2971,4.2979,4.291,4.2905,4.3037,4.3052,4.3067,4.3233,4.3106,4.3115,4.312,4.3485,4.3491,4.3496,0,0,0,0,0,0,4.2622,4.2648,4.2867,4.2766,4.2793,4.2834,4.2896,4.2901,4.2938,4.2985,4.2991,4.2942,4.3035,4.3054,4.3172,4.3237,4.3119,4.3127,4.348,4.3487,4.3493,4.3565,0,0,0,0,0,0,4.2613,4.2646,4.2702,4.2768,4.2799,4.2972,4.29,4.2906,4.2955,4.2949,4.3016,4.3023,4.3033,4.3158,4.3181,4.3247,4.3134,4.3474,4.3483,4.3491,4.3557,4.3574,4.3588,0,0,0,0,0,4.2603,4.2716,4.2705,4.2731,4.2869,4.2976,4.2993,4.3004,4.296,4.3015,4.3044,4.3021,4.3226,4.317,4.3196,4.3266,4.347,4.3481,4.349,4.3551,4.3571,4.3587,0,0,0,0,0,0,4.2655,4.2725,4.2713,4.2852,4.2908,4.297,4.3039,4.3025,4.3094,4.3086,4.3094,4.3109,4.3229,4.3259,4.3196,4.3402,4.3341,4.3357,4.3378,4.3398,4.3413,4.3403,4.3142,0,0,0,0,0,4.2683,4.2766,4.2821,4.2938,4.2967,4.2998,4.3045,4.3048,4.3107,4.313,4.3168,4.3224,4.33,4.335,4.3424,4.3561,4.3574,4.3621,4.3637,4.3649,4.3662,4.3734,4.3755,4.3529,4.3529,4.3528,0,0,4.2741,4.2789,4.2841,4.295,4.2994,4.3077,4.3019,4.311,4.3171,4.3143,4.3257,4.3286,4.3348,4.3476,4.3533,4.3504,4.3727,4.3662,4.3671,4.3678,4.3746,4.3768,4.3787,4.3535,4.3534,4.3533,0,0,4.2889,4.2935,4.3036,4.3082,4.315,4.3169,4.3193,4.3256,4.3275,4.3389,4.3369,4.344,4.3573,4.3617,4.3657,4.3819,4.3799,4.3842,4.3921,4.3991,4.4009,4.4025,4.4081,4.4101,4.3855,4.3855,4.3855,0,4.2952,4.308,4.309,4.3182,4.3229,4.3209,4.3309,4.3352,4.344,4.3471,4.3437,4.3602,4.3642,4.3778,4.3817,4.3851,4.3876,4.3835,4.4006,4.4022,4.4037,4.409,4.4111,4.386,4.3859,4.3859,4.3858,0,4.3153,4.3241,4.3314,4.34,4.3455,4.3551,4.3573,4.3627,4.3624,4.3646,4.376,4.3807,4.3889,4.3921,4.3919,4.4056,4.4035,4.4004,4.3943,4.4063,4.4113,4.4134,4.3867,4.3865,4.3864,4.3862,0,0,4.334,4.3429,4.3455,4.3493,4.3565,4.3632,4.3725,4.3806,4.3851,4.3911,4.3988,4.4099,4.4069,4.4115,4.4117,4.4178,4.43,4.4139,4.414,4.4166,4.4451,4.4474,4.4498,4.4287,4.4291,4.4295,4.4445,0,4.3493,4.3661,4.3671,4.3821,4.39,4.388,4.396,4.4012,4.4034,4.4102,4.4125,4.4203,4.416,4.4186,4.4246,4.4273,4.4357,4.4262,4.4356,4.436,4.4342,4.4524,4.455,4.469,4.4465,4.4468,4.4471,0,4.3696,4.3763,4.3921,4.3979,4.4013,4.4086,4.4159,4.4226,4.4282,4.4293,4.4342,4.4335,4.4427,4.4363,4.4488,4.4423,4.4462,4.448,4.4486,4.4495,4.4423,4.4537,4.4735,4.4756,4.4502,4.45,4.4497,0,4.3814,4.3944,4.4055,4.4088,4.4159,4.421,4.4242,4.4294,4.4341,4.4403,4.4433,4.4506,4.4545,4.46,4.4611,4.4563,4.4735,4.4673,4.4745,4.4745,4.4783,4.478,4.4989,4.4809,4.4809,4.4808,4.4808,0,4.3985,4.4082,4.4109,4.4177,4.4284,4.4293,4.4398,4.4425,4.4472,4.4542,4.4528,4.4594,4.4606,4.4673,4.4682,4.4783,4.4801,4.4811,4.4812,4.4813,4.4811,4.4838,4.4828,4.4814,4.4813,4.4811,4.481,0,4.4136,4.4159,4.4278,4.4335,4.4351,4.4427,4.4474,4.4538,4.4557,4.4647,4.4668,4.4698,4.4777,4.4793,4.4887,4.4892,4.5012,4.5004,4.4994,4.4993,4.5064,4.5057,4.5297,4.5328,4.5128,4.513,4.5132,0,4.4243,4.4318,4.4382,4.443,4.4464,4.454,4.4587,4.4597,4.4647,4.4715,4.477,4.4847,4.491,4.5036,4.5064,4.5134,4.5127,4.5206,4.5138,4.5134,4.5127,4.5122,4.5128,4.5219,4.5222,4.5223,4.5225,0,4.4431,4.4437,4.4508,4.4581,4.4639,4.4697,4.4752,4.479,4.4807,4.4863,4.4944,4.4993,4.5087,4.5163,4.5233,4.5262,4.5246,4.5246,4.5266,4.5267,4.5258,4.5263,4.5029,4.5241,4.5239,4.5238,4.5237,4.5236,4.4562,4.4626,4.4682,4.4759,4.4802,4.4853,4.4915,4.4942,4.501,4.5089,4.509,4.5178,4.5228,4.532,4.5354,4.542,4.5395,4.5425,4.5433,4.544,4.5446,4.5247,4.5433,4.5433,4.5432,4.5432,4.5432,0,4.4748,4.4782,4.4853,4.4931,4.4991,4.4971,4.503,4.5081,4.5159,4.5209,4.527,4.5362,4.5435,4.5468,4.5539,4.5586,4.558,4.5604,4.56,4.5607,4.5465,4.544,4.5608,4.5608,4.5608,4.5608,4.5607,4.5607,4.4851,4.4958,4.4971,4.5097,4.5129,4.5217,4.5252,4.5298,4.5337,4.544,4.5501,4.5523,4.5565,4.5638,4.5703,4.5711,4.5737,4.5765,4.5769,4.5635,4.5617,4.56,4.5577,4.5771,4.5771,4.5905,4.5906,4.5907]}]]